Location: Sihaung
(22.8641°N, 94.0549°E)
Time: 12:17:41
(UTC+00:00)

GP-B - Pass Details

Date: 03 March 2021
Orbit: 631 x 634 km, 89.8° (Epoch: 11 April)

Event Time Altitude Azimuth Distance (km) Brightness Sun altitude
Rises 12:45:33 0° 166° (SSE) 2,914 6.4 -14.0°
Reaches altitude 10° 12:47:48 10° 161° (SSE) 2,009 5.5 -14.5°
Maximum altitude 12:52:06 53° 85° (E) 779 3.2 -15.5°
Drops below altitude 10° 12:56:25 10° 9° (N) 2,017 5.6 -16.5°
Sets 12:58:41 0° 4° (N) 2,928 6.5 -17.1°
